TimeCST,TemperatureF,Dew PointF,Humidity,Sea Level PressureIn,VisibilityMPH,Wind Direction,Wind SpeedMPH,Gust SpeedMPH,PrecipitationIn,Events,Conditions,WindDirDegrees,DateUTC
12:53 AM,55.0,54.0,96,30.01,6.0,Calm,Calm,-,0.04,Rain,Light Rain,0,2013-02-05 06:53:00
1:53 AM,55.9,55.0,97,30.00,6.0,Calm,Calm,-,0.03,Rain,Light Rain,0,2013-02-05 07:53:00
2:53 AM,55.0,55.0,100,30.01,3.0,Calm,Calm,-,0.15,Rain,Heavy Rain,0,2013-02-05 08:53:00
3:53 AM,55.0,55.0,100,29.99,2.5,NE,4.6,-,0.13,Rain,Heavy Rain,50,2013-02-05 09:53:00
4:00 AM,55.4,55.4,100,29.99,4.0,ENE,3.5,-,0.02,Rain,Rain,70,2013-02-05 10:00:00
4:53 AM,55.9,55.0,97,29.99,6.0,East,9.2,-,0.04,,Overcast,90,2013-02-05 10:53:00
5:53 AM,57.0,54.0,89,30.00,10.0,East,12.7,-,0.00,Rain,Light Rain,100,2013-02-05 11:53:00
6:53 AM,57.0,55.0,93,30.00,10.0,East,6.9,-,N/A,,Overcast,80,2013-02-05 12:53:00
7:51 AM,57.2,55.4,94,30.02,10.0,ENE,6.9,-,0.00,Rain,Light Rain,60,2013-02-05 13:51:00
7:53 AM,57.0,55.9,96,30.03,10.0,NE,8.1,-,0.00,Rain,Light Rain,50,2013-02-05 13:53:00
8:53 AM,57.9,57.0,97,30.03,10.0,NE,6.9,-,0.02,,Overcast,40,2013-02-05 14:53:00
9:53 AM,59.0,57.0,93,30.04,10.0,Calm,Calm,-,N/A,,Overcast,0,2013-02-05 15:53:00
10:05 AM,59.0,57.2,94,30.04,10.0,Calm,Calm,-,N/A,,Overcast,0,2013-02-05 16:05:00
10:53 AM,60.1,57.0,90,30.04,10.0,Calm,Calm,-,N/A,,Overcast,0,2013-02-05 16:53:00
11:53 AM,63.0,59.0,87,30.03,10.0,NE,3.5,-,N/A,,Overcast,40,2013-02-05 17:53:00
12:53 PM,64.0,59.0,84,30.01,10.0,Calm,Calm,-,N/A,,Overcast,0,2013-02-05 18:53:00
1:18 PM,64.4,59.0,83,30.00,10.0,Calm,Calm,-,N/A,,Overcast,0,2013-02-05 19:18:00
1:53 PM,64.9,60.1,84,29.99,10.0,NNE,3.5,-,N/A,,Overcast,20,2013-02-05 19:53:00
2:53 PM,66.0,60.1,81,29.99,10.0,NE,3.5,-,N/A,,Overcast,40,2013-02-05 20:53:00
3:10 PM,66.2,60.8,83,29.98,10.0,NNE,4.6,-,N/A,,Mostly Cloudy,30,2013-02-05 21:10:00
3:21 PM,64.4,60.8,88,29.98,10.0,NE,4.6,-,N/A,,Mostly Cloudy,40,2013-02-05 21:21:00
3:53 PM,64.9,60.1,84,29.99,10.0,NNE,3.5,-,N/A,,Mostly Cloudy,30,2013-02-05 21:53:00
4:53 PM,64.9,60.1,84,29.99,10.0,Calm,Calm,-,N/A,,Mostly Cloudy,0,2013-02-05 22:53:00
5:53 PM,59.0,57.9,96,29.99,10.0,Calm,Calm,-,N/A,,Partly Cloudy,0,2013-02-05 23:53:00
6:53 PM,57.0,57.0,100,30.01,6.0,Calm,Calm,-,N/A,,Clear,0,2013-02-06 00:53:00
7:27 PM,55.4,55.4,100,30.02,6.0,Calm,Calm,-,N/A,Fog,Shallow Fog,0,2013-02-06 01:27:00
7:53 PM,55.0,55.0,100,30.02,6.0,Calm,Calm,-,N/A,Fog,Shallow Fog,0,2013-02-06 01:53:00
8:53 PM,53.1,53.1,100,30.04,6.0,Calm,Calm,-,N/A,Fog,Patches of Fog,0,2013-02-06 02:53:00
9:53 PM,53.1,53.1,100,30.04,0.2,Calm,Calm,-,N/A,Fog,Fog,0,2013-02-06 03:53:00
10:53 PM,52.0,52.0,100,30.05,0.2,NNW,3.5,-,N/A,Fog,Fog,330,2013-02-06 04:53:00
11:53 PM,52.0,52.0,100,30.06,0.2,Calm,Calm,-,N/A,Fog,Fog,0,2013-02-06 05:53:00